CW2014 Weather Reports


Display with metric or nautical units.
time (UTC)temp
F
wind
direction
speed
MPH
gust
MPH
rain 1hr
in
rain 24hr
in
rain mn
in
humidity
%
barometer
mb
20260905002027 101 276 2.0 7.0 0.00 0.00 0.00 27 1007.8
20260905001548 101 313 2.0 9.0 0.00 0.00 0.00 27 1007.7
20260905001024 101 208 3.0 9.0 0.00 0.00 0.00 27 1007.9
20260905000526 102 0 3.0 9.0 0.00 0.00 0.00 27 1007.9
20260905000048 101 0 0.0 3.0 0.00 0.00 0.00 29 1008.0
20260904235523 101 190 1.0 5.0 0.00 0.00 0.00 29 1008.0
20260904235024 100 153 2.0 8.0 0.00 0.00 0.00 29 1007.9
20260904234551 100 150 2.0 12.0 0.00 0.00 0.00 29 1007.9
20260904234024 101 93 5.0 12.0 0.00 0.00 0.00 29 1008.0
20260904233524 101 171 2.0 7.0 0.00 0.00 0.00 29 1008.0
20260904233045 101 180 2.0 7.0 0.00 0.00 0.00 29 1008.0
20260904232526 101 203 2.0 7.0 0.00 0.00 0.00 29 1007.9
20260904232026 101 144 1.0 6.0 0.00 0.00 0.00 29 1008.0
20260904231542 100 130 0.0 8.0 0.00 0.00 0.00 29 1008.0
20260904231023 100 163 3.0 8.0 0.00 0.00 0.00 30 1008.1
20260904230524 100 149 2.0 11.0 0.00 0.00 0.00 30 1008.1
20260904225529 100 173 3.0 9.0 0.00 0.00 0.00 30 1008.1
20260904225025 101 274 3.0 8.0 0.00 0.00 0.00 29 1008.2
20260904224604 101 248 1.0 7.0 0.00 0.00 0.00 29 1008.3
20260904224028 101 306 1.0 7.0 0.00 0.00 0.00 28 1008.4
20260904223526 101 0 0.0 10.0 0.00 0.00 0.00 29 1008.5
20260904223047 100 250 4.0 11.0 0.00 0.00 0.00 30 1008.6
20260904222524 100 208 5.0 11.0 0.00 0.00 0.00 30 1008.5
20260904222025 101 190 2.0 10.0 0.00 0.00 0.00 31 1008.5
20260904221546 102 109 5.0 10.0 0.00 0.00 0.00 31 1008.6
20260904221023 102 0 1.0 6.0 0.00 0.00 0.00 30 1008.6
20260904220524 101 0 0.0 10.0 0.00 0.00 0.00 30 1008.7
20260904220054 102 147 3.0 10.0 0.00 0.00 0.00 30 1008.7
20260904215528 101 207 3.0 14.0 0.00 0.00 0.00 30 1008.8
20260904215027 101 171 5.0 14.0 0.00 0.00 0.00 30 1008.9
20260904214554 101 140 3.0 11.0 0.00 0.00 0.00 31 1008.9
20260904214028 101 5 2.0 11.0 0.00 0.00 0.00 29 1009.1
20260904213525 101 205 3.0 10.0 0.00 0.00 0.00 29 1009.2
20260904213053 102 186 2.0 10.0 0.00 0.00 0.00 29 1009.2
20260904212527 101 155 4.0 10.0 0.00 0.00 0.00 30 1009.3
20260904212026 101 185 1.0 8.0 0.00 0.00 0.00 31 1009.5
20260904211555 101 107 2.0 9.0 0.00 0.00 0.00 31 1009.5
20260904211024 101 130 3.0 10.0 0.00 0.00 0.00 30 1009.6
20260904210526 101 200 3.0 10.0 0.00 0.00 0.00 31 1009.7
20260904210053 101 170 1.0 7.0 0.00 0.00 0.00 32 1009.7
20260904205526 101 300 1.0 7.0 0.00 0.00 0.00 31 1009.6
20260904205025 100 231 2.0 7.0 0.00 0.00 0.00 31 1009.7
20260904204546 100 329 2.0 9.0 0.00 0.00 0.00 32 1009.7
20260904204029 100 55 3.0 9.0 0.00 0.00 0.00 31 1009.8
20260904203523 99 152 1.0 5.0 0.00 0.00 0.00 35 1009.9
20260904203050 99 320 1.0 9.0 0.00 0.00 0.00 36 1010.0
20260904202525 99 272 0.0 11.0 0.00 0.00 0.00 36 1010.1
20260904202025 99 175 4.0 11.0 0.00 0.00 0.00 36 1010.2
20260904201550 98 199 2.0 9.0 0.00 0.00 0.00 37 1010.1
20260904201024 98 0 1.0 9.0 0.00 0.00 0.00 37 1010.3
20260904200524 99 186 2.0 10.0 0.00 0.00 0.00 36 1010.4
20260904200047 99 216 3.0 10.0 0.00 0.00 0.00 35 1010.5
20260904195525 99 209 4.0 10.0 0.00 0.00 0.00 36 1010.6
20260904195026 98 242 3.0 13.0 0.00 0.00 0.00 35 1010.6
20260904194545 98 265 4.0 13.0 0.00 0.00 0.00 36 1010.7
20260904194024 98 200 4.0 13.0 0.00 0.00 0.00 37 1010.7
20260904193524 97 281 2.0 8.0 0.00 0.00 0.00 38 1010.8
20260904193052 98 255 2.0 10.0 0.00 0.00 0.00 38 1010.9
20260904192527 97 143 3.0 10.0 0.00 0.00 0.00 40 1010.9
20260904192025 97 131 3.0 10.0 0.00 0.00 0.00 40 1011.1
20260904191546 97 92 2.0 10.0 0.00 0.00 0.00 40 1011.1
20260904191024 97 178 3.0 10.0 0.00 0.00 0.00 39 1011.2
20260904190523 97 251 2.0 9.0 0.00 0.00 0.00 39 1011.3
20260904190045 96 192 3.0 10.0 0.00 0.00 0.00 39 1011.4
20260904185525 97 162 3.0 10.0 0.00 0.00 0.00 39 1011.4
20260904185024 96 202 0.0 12.0 0.00 0.00 0.00 41 1011.5
20260904184545 96 185 3.0 15.0 0.00 0.00 0.00 40 1011.6
20260904184026 96 204 4.0 15.0 0.00 0.00 0.00 40 1011.6
20260904183524 96 175 3.0 10.0 0.00 0.00 0.00 40 1011.7
20260904183051 96 163 2.0 10.0 0.00 0.00 0.00 41 1011.7
20260904182525 95 140 4.0 10.0 0.00 0.00 0.00 42 1011.8
20260904182028 95 162 2.0 11.0 0.00 0.00 0.00 41 1011.9
20260904181547 95 223 3.0 12.0 0.00 0.00 0.00 41 1012.0
20260904181028 95 182 4.0 12.0 0.00 0.00 0.00 42 1012.1
20260904180527 95 169 5.0 12.0 0.00 0.00 0.00 42 1012.1
20260904180047 95 198 4.0 12.0 0.00 0.00 0.00 42 1012.1
20260904175525 94 196 5.0 12.0 0.00 0.00 0.00 43 1012.1
20260904175025 94 132 4.0 12.0 0.00 0.00 0.00 43 1012.1
20260904174554 94 191 6.0 14.0 0.00 0.00 0.00 43 1012.2
20260904174026 94 0 4.0 14.0 0.00 0.00 0.00 44 1012.1
20260904173523 93 186 5.0 14.0 0.00 0.00 0.00 45 1012.1
20260904173053 93 159 4.0 11.0 0.00 0.00 0.00 46 1012.2
20260904172528 93 207 6.0 11.0 0.00 0.00 0.00 46 1012.2
20260904172026 92 194 2.0 10.0 0.00 0.00 0.00 51 1012.2
20260904171552 92 173 4.0 10.0 0.00 0.00 0.00 51 1012.2
20260904171025 92 132 2.0 11.0 0.00 0.00 0.00 51 1012.2
20260904170524 92 108 4.0 15.0 0.00 0.00 0.00 50 1012.2
20260904170046 92 162 4.0 15.0 0.00 0.00 0.00 49 1012.2
20260904165528 92 172 6.0 15.0 0.00 0.00 0.00 49 1012.2
20260904165026 92 155 4.0 12.0 0.00 0.00 0.00 50 1012.1
20260904164557 91 165 5.0 12.0 0.00 0.00 0.00 51 1012.1
20260904164024 91 175 5.0 11.0 0.00 0.00 0.00 52 1012.1
20260904163531 91 153 3.0 14.0 0.00 0.00 0.00 52 1012.0
20260904163048 91 200 5.0 14.0 0.00 0.00 0.00 53 1012.0
20260904162527 91 128 5.0 13.0 0.00 0.00 0.00 52 1011.9
20260904162026 90 146 3.0 13.0 0.00 0.00 0.00 53 1011.9
20260904161547 90 145 3.0 14.0 0.00 0.00 0.00 54 1011.9
20260904161028 90 182 3.0 14.0 0.00 0.00 0.00 55 1012.0
20260904160527 89 155 4.0 11.0 0.00 0.00 0.00 55 1011.9
20260904160052 89 135 5.0 10.0 0.00 0.00 0.00 55 1012.0
20260904155525 89 230 4.0 10.0 0.00 0.00 0.00 56 1011.9
20260904155024 89 166 5.0 10.0 0.00 0.00 0.00 55 1011.8
20260904154545 89 135 2.0 11.0 0.00 0.00 0.00 57 1011.8
20260904154029 88 146 4.0 11.0 0.00 0.00 0.00 57 1011.7
20260904153526 88 159 4.0 11.0 0.00 0.00 0.00 58 1011.7
20260904153047 88 0 4.0 11.0 0.00 0.00 0.00 58 1011.6
20260904152528 88 148 4.0 12.0 0.00 0.00 0.00 58 1011.6
20260904152024 87 163 5.0 12.0 0.00 0.00 0.00 59 1011.6
20260904151546 87 200 4.0 14.0 0.00 0.00 0.00 59 1011.6
20260904151025 87 152 5.0 14.0 0.00 0.00 0.00 60 1011.6
20260904150525 86 216 4.0 11.0 0.00 0.00 0.00 60 1011.6
20260904150047 86 138 4.0 13.0 0.00 0.00 0.00 60 1011.7
20260904145527 86 128 5.0 13.0 0.00 0.00 0.00 61 1011.6
20260904145022 86 161 3.0 9.0 0.00 0.00 0.00 62 1011.6
20260904144548 86 161 3.0 9.0 0.00 0.00 0.00 62 1011.6
20260904144027 85 198 3.0 9.0 0.00 0.00 0.00 63 1011.6
20260904143523 85 174 3.0 9.0 0.00 0.00 0.00 63 1011.5
20260904143045 85 130 2.0 8.0 0.00 0.00 0.00 64 1011.4
20260904142525 84 158 2.0 9.0 0.00 0.00 0.00 64 1011.4
20260904142026 84 145 3.0 9.0 0.00 0.00 0.00 65 1011.3
20260904141546 84 174 3.0 9.0 0.00 0.00 0.00 65 1011.3
20260904141025 83 173 3.0 9.0 0.00 0.00 0.00 66 1011.3
20260904140524 83 169 4.0 10.0 0.00 0.00 0.00 66 1011.1
20260904140103 83 153 3.0 12.0 0.00 0.00 0.00 67 1011.1
20260904135528 83 159 5.0 12.0 0.00 0.00 0.00 67 1011.1
20260904135030 83 160 5.0 12.0 0.00 0.00 0.00 67 1010.9
20260904134559 82 123 5.0 12.0 0.00 0.00 0.00 67 1010.9
20260904134026 82 152 3.0 11.0 0.00 0.00 0.00 67 1010.8
20260904133524 82 191 4.0 10.0 0.00 0.00 0.00 68 1010.7
20260904133053 82 144 4.0 9.0 0.00 0.00 0.00 68 1010.6
20260904132528 82 152 3.0 9.0 0.00 0.00 0.00 68 1010.6
20260904132027 82 163 4.0 10.0 0.00 0.00 0.00 68 1010.6
20260904131547 82 153 5.0 12.0 0.00 0.00 0.00 68 1010.4
20260904131026 82 156 4.0 12.0 0.00 0.00 0.00 68 1010.4
20260904130524 82 137 4.0 12.0 0.00 0.00 0.00 68 1010.3
20260904130055 82 142 4.0 10.0 0.00 0.00 0.00 67 1010.2
20260904125528 82 162 4.0 10.0 0.00 0.00 0.00 67 1010.2
20260904125024 82 192 5.0 10.0 0.00 0.00 0.00 67 1010.1
20260904124555 82 127 5.0 12.0 0.00 0.00 0.00 67 1010.1
20260904124025 82 150 4.0 12.0 0.00 0.00 0.00 67 1009.9
20260904123528 82 164 4.0 11.0 0.00 0.00 0.00 66 1009.9
20260904123047 82 189 3.0 11.0 0.00 0.00 0.00 66 1009.9
20260904122524 82 113 4.0 11.0 0.00 0.00 0.00 66 1009.8
20260904122028 82 117 5.0 11.0 0.00 0.00 0.00 66 1009.8
20260904121545 83 159 3.0 9.0 0.00 0.00 0.00 66 1009.8
20260904121024 83 137 4.0 9.0 0.00 0.00 0.00 65 1009.7
20260904120525 83 136 3.0 10.0 0.00 0.00 0.00 65 1009.7
20260904120055 83 158 4.0 11.0 0.00 0.00 0.00 65 1009.6
20260904115525 83 147 4.0 12.0 0.00 0.00 0.00 65 1009.7
20260904115026 83 157 3.0 12.0 0.00 0.00 0.00 64 1009.7
20260904114547 83 148 4.0 11.0 0.00 0.00 0.00 64 1009.7
20260904114026 83 137 3.0 10.0 0.00 0.00 0.00 63 1009.6
20260904113524 83 139 4.0 10.0 0.00 0.00 0.00 63 1009.6
20260904113051 83 168 3.0 10.0 0.00 0.00 0.00 63 1009.6
20260904112527 83 128 3.0 10.0 0.00 0.00 0.00 62 1009.5
20260904112025 83 118 3.0 9.0 0.00 0.00 0.00 63 1009.5
20260904111545 83 94 2.0 7.0 0.00 0.00 0.00 63 1009.5
20260904111024 83 152 3.0 8.0 0.00 0.00 0.00 63 1009.6
20260904110525 84 154 3.0 8.0 0.00 0.00 0.00 62 1009.6
20260904110052 84 136 2.0 4.0 0.00 0.00 0.00 61 1009.7
20260904105526 84 94 2.0 4.0 0.00 0.00 0.00 60 1009.7
20260904105027 85 96 0.0 7.0 0.00 0.00 0.00 60 1009.5
20260904104546 85 148 1.0 7.0 0.00 0.00 0.00 59 1009.6
20260904104028 85 0 1.0 6.0 0.00 0.00 0.00 59 1009.5
20260904103524 85 0 1.0 8.0 0.00 0.00 0.00 58 1009.4
20260904103047 85 152 2.0 8.0 0.00 0.00 0.00 58 1009.4
20260904102526 85 0 2.0 8.0 0.00 0.00 0.00 58 1009.4
20260904102024 85 195 3.0 8.0 0.00 0.00 0.00 58 1009.2
20260904101551 85 194 2.0 8.0 0.00 0.00 0.00 58 1009.2
20260904101026 85 188 3.0 9.0 0.00 0.00 0.00 58 1009.2
20260904100525 85 177 3.0 9.0 0.00 0.00 0.00 58 1009.1
20260904100045 85 152 3.0 8.0 0.00 0.00 0.00 58 1009.1
20260904095615 85 178 3.0 8.0 0.00 0.00 0.00 58 1009.2
20260904095024 85 135 2.0 7.0 0.00 0.00 0.00 58 1009.1
20260904094546 85 168 3.0 8.0 0.00 0.00 0.00 58 1009.1
20260904094024 85 140 3.0 8.0 0.00 0.00 0.00 58 1009.2
20260904093524 85 140 2.0 7.0 0.00 0.00 0.00 58 1009.2
20260904093056 85 136 2.0 7.0 0.00 0.00 0.00 57 1009.2
20260904092526 86 132 2.0 8.0 0.00 0.00 0.00 57 1009.1
20260904092024 86 186 3.0 10.0 0.00 0.00 0.00 56 1009.1
20260904091550 86 199 3.0 10.0 0.00 0.00 0.00 57 1009.1
20260904091026 86 169 2.0 6.0 0.00 0.00 0.00 56 1009.1
20260904090527 86 208 3.0 7.0 0.00 0.00 0.00 56 1009.1
20260904090049 86 122 1.0 8.0 0.00 0.00 0.00 56 1009.0
20260904085526 85 183 3.0 8.0 0.00 0.00 0.00 57 1009.1
20260904085025 85 150 3.0 8.0 0.00 0.00 0.00 57 1009.1
20260904084546 85 113 2.0 6.0 0.00 0.00 0.00 57 1009.0
20260904084028 86 142 2.0 6.0 0.00 0.00 0.00 57 1009.0
20260904083525 86 114 2.0 8.0 0.00 0.00 0.00 56 1009.0
20260904083053 86 115 2.0 8.0 0.00 0.00 0.00 55 1009.0
20260904082527 87 146 2.0 6.0 0.00 0.00 0.00 54 1009.0
20260904082024 87 146 2.0 6.0 0.00 0.00 0.00 54 1009.1
20260904081547 87 0 2.0 9.0 0.00 0.00 0.00 54 1009.0
20260904081024 87 164 3.0 9.0 0.00 0.00 0.00 53 1009.1
20260904080524 87 165 4.0 9.0 0.00 0.00 0.00 53 1009.1
20260904080049 87 191 2.0 9.0 0.00 0.00 0.00 53 1009.0
20260904075525 88 139 3.0 9.0 0.00 0.00 0.00 52 1009.0
20260904075023 88 163 3.0 7.0 0.00 0.00 0.00 52 1009.0
20260904074601 88 197 2.0 10.0 0.00 0.00 0.00 52 1009.0
20260904074028 88 177 3.0 10.0 0.00 0.00 0.00 52 1009.0
20260904073528 88 196 4.0 9.0 0.00 0.00 0.00 52 1009.0
20260904073057 88 178 4.0 11.0 0.00 0.00 0.00 52 1008.9
20260904072525 88 192 3.0 11.0 0.00 0.00 0.00 52 1008.9
20260904072026 88 167 4.0 11.0 0.00 0.00 0.00 52 1008.9
20260904071547 88 203 3.0 12.0 0.00 0.00 0.00 52 1008.9
20260904071024 88 190 4.0 12.0 0.00 0.00 0.00 52 1008.9
20260904070526 88 152 3.0 11.0 0.00 0.00 0.00 52 1008.8
20260904070045 88 198 3.0 12.0 0.00 0.00 0.00 52 1008.8
20260904065526 88 182 3.0 12.0 0.00 0.00 0.00 52 1008.8
20260904065023 88 171 4.0 11.0 0.00 0.00 0.00 52 1008.8
20260904064544 88 241 4.0 11.0 0.00 0.00 0.00 52 1008.6
20260904064024 88 194 3.0 11.0 0.00 0.00 0.00 52 1008.6
20260904063523 87 189 2.0 11.0 0.00 0.00 0.00 53 1008.6
20260904063058 87 203 4.0 11.0 0.00 0.00 0.00 54 1008.6
20260904062525 87 192 2.0 8.0 0.00 0.00 0.00 54 1008.6
20260904062025 87 194 2.0 9.0 0.00 0.00 0.00 54 1008.5
20260904061547 88 123 2.0 9.0 0.00 0.00 0.00 54 1008.5
20260904061024 88 184 4.0 9.0 0.00 0.00 0.00 53 1008.5
20260904060525 88 185 3.0 9.0 0.00 0.00 0.00 53 1008.5
20260904060046 88 142 3.0 10.0 0.00 0.00 0.00 53 1008.5
20260904055524 88 188 4.0 10.0 0.00 0.00 0.00 53 1008.5
20260904055027 88 208 3.0 10.0 0.00 0.00 0.00 53 1008.6
20260904054546 88 209 5.0 11.0 0.00 0.00 0.00 53 1008.5
20260904054025 89 220 4.0 11.0 0.00 0.00 0.00 52 1008.5
20260904053523 89 207 4.0 11.0 0.00 0.00 0.00 52 1008.4
20260904053049 89 171 2.0 12.0 0.00 0.00 0.00 53 1008.4
20260904052524 89 178 4.0 14.0 0.00 0.00 0.00 52 1008.3
20260904052024 89 154 5.0 14.0 0.00 0.00 0.00 52 1008.3
20260904051559 89 164 1.0 10.0 0.00 0.00 0.00 51 1008.2
20260904051026 89 147 4.0 10.0 0.00 0.00 0.00 50 1008.2
20260904050524 89 160 2.0 10.0 0.00 0.00 0.00 50 1008.2
20260904050047 89 157 3.0 10.0 0.00 0.00 0.00 50 1008.1
20260904045525 89 158 3.0 10.0 0.00 0.00 0.00 50 1008.1
20260904045024 89 148 3.0 10.0 0.00 0.00 0.00 49 1008.2
20260904044553 89 201 2.0 7.0 0.00 0.00 0.00 49 1008.1
20260904044026 89 165 2.0 7.0 0.00 0.00 0.00 49 1008.2
20260904043527 90 128 2.0 10.0 0.00 0.00 0.00 48 1008.2
20260904043049 90 146 3.0 10.0 0.00 0.00 0.00 47 1008.2
20260904042523 90 169 5.0 12.0 0.00 0.00 0.00 46 1008.0
20260904042028 90 172 4.0 12.0 0.00 0.00 0.00 45 1008.1
20260904041546 91 173 3.0 10.0 0.00 0.00 0.00 44 1008.0
20260904041024 91 181 3.0 8.0 0.00 0.00 0.00 43 1007.9
20260904040525 91 0 4.0 9.0 0.00 0.00 0.00 43 1008.0
20260904040048 90 180 3.0 9.0 0.00 0.00 0.00 43 1007.9
20260904035526 90 180 4.0 9.0 0.00 0.00 0.00 43 1007.8
20260904035026 89 146 2.0 9.0 0.00 0.00 0.00 45 1007.8
20260904034555 89 129 3.0 9.0 0.00 0.00 0.00 47 1007.8
20260904034024 89 148 2.0 5.0 0.00 0.00 0.00 47 1007.7
20260904033524 89 139 2.0 5.0 0.00 0.00 0.00 47 1007.6
20260904033052 89 145 2.0 5.0 0.00 0.00 0.00 48 1007.5
20260904032525 89 144 2.0 5.0 0.00 0.00 0.00 48 1007.4
20260904032026 89 144 2.0 4.0 0.00 0.00 0.00 48 1007.3
20260904031552 89 136 0.0 4.0 0.00 0.00 0.00 48 1007.3
20260904031024 89 136 0.0 4.0 0.00 0.00 0.00 48 1007.2
20260904030528 89 136 0.0 4.0 0.00 0.00 0.00 47 1007.1
20260904030055 89 136 1.0 5.0 0.00 0.00 0.00 47 1007.1
20260904025525 89 0 1.0 7.0 0.00 0.00 0.00 47 1007.0
20260904025025 89 146 1.0 7.0 0.00 0.00 0.00 47 1007.1
20260904024546 89 144 1.0 6.0 0.00 0.00 0.00 47 1007.2
20260904024025 89 134 2.0 7.0 0.00 0.00 0.00 47 1007.2
20260904023529 88 171 2.0 7.0 0.00 0.00 0.00 48 1007.2
20260904023052 88 113 0.0 3.0 0.00 0.00 0.00 49 1007.1
20260904022524 88 0 1.0 5.0 0.00 0.00 0.00 49 1007.1
20260904022027 88 0 1.0 6.0 0.00 0.00 0.00 50 1007.1
20260904021551 88 0 1.0 6.0 0.00 0.00 0.00 50 1007.1
20260904021030 88 0 3.0 10.0 0.00 0.00 0.00 50 1007.1
20260904020524 87 154 3.0 10.0 0.00 0.00 0.00 51 1007.0
20260904020058 87 190 4.0 10.0 0.00 0.00 0.00 52 1007.1
20260904015525 87 144 3.0 10.0 0.00 0.00 0.00 54 1007.2
20260904015024 87 172 3.0 12.0 0.00 0.00 0.00 54 1007.2
20260904014603 87 186 4.0 12.0 0.00 0.00 0.00 54 1007.2
20260904014023 87 216 6.0 17.0 0.00 0.00 0.00 54 1007.2
20260904013523 88 167 8.0 18.0 0.00 0.00 0.00 52 1007.1
20260904013053 89 187 7.0 20.0 0.00 0.00 0.00 51 1007.2
20260904012524 90 200 9.0 20.0 0.00 0.00 0.00 52 1007.1
20260904012023 92 211 5.0 17.0 0.00 0.00 0.00 43 1007.1
20260904011549 92 212 7.0 16.0 0.00 0.00 0.00 42 1007.2
20260904011025 94 167 7.0 16.0 0.00 0.00 0.00 40 1007.3
20260904010525 96 189 5.0 14.0 0.00 0.00 0.00 38 1007.1
20260904005528 97 110 1.0 4.0 0.00 0.00 0.00 34 1006.7
20260904005023 98 164 0.0 4.0 0.00 0.00 0.00 35 1006.8
20260904004551 98 125 1.0 7.0 0.00 0.00 0.00 34 1006.9
20260904004024 98 75 1.0 9.0 0.00 0.00 0.00 34 1007.0
20260904003525 98 123 2.0 10.0 0.00 0.00 0.00 34 1007.0
20260904003047 98 167 2.0 10.0 0.00 0.00 0.00 33 1006.9
20260904002530 98 136 1.0 8.0 0.00 0.00 0.00 34 1006.9